This is the latest recevied weather packets stored in our database for station/object N3WXO-1. If no packets are shown the sender has not sent any weather packets the latest 10 day(s).
| Time | Temp. | Humidity | Pressure | Rain* | Wind** | Luminosity | Snow |
|---|---|---|---|---|---|---|---|
| 1778067622 | 17.78° C | 82% | 1008.8 hPa | 0 mm | - | 23 W/m² | - |
| 1778067332 | 17.22° C | 81% | 1008.7 hPa | 0 mm | - | 21 W/m² | - |
| 1778067025 | 17.22° C | 81% | 1008.8 hPa | 0 mm | - | 18 W/m² | - |
| 1778066720 | 17.22° C | 80% | 1008.7 hPa | 0 mm | - | 19 W/m² | - |
| 1778066424 | 17.22° C | 80% | 1008.8 hPa | 0 mm | - | 23 W/m² | - |
| 1778066116 | 17.22° C | 80% | 1008.8 hPa | 0 mm | - | 14 W/m² | - |
| 1778065825 | 17.22° C | 80% | 1008.7 hPa | 0 mm | - | 14 W/m² | - |
| 1778065533 | 17.22° C | 80% | 1008.6 hPa | 0 mm | - | 16 W/m² | - |
| 1778065224 | 17.22° C | 80% | 1008.5 hPa | 0 mm | - | 12 W/m² | - |
| 1778064934 | 17.22° C | 80% | 1008.4 hPa | 0 mm | - | 16 W/m² | - |
| 1778064621 | 16.67° C | 80% | 1008.4 hPa | 0 mm | - | 25 W/m² | - |
| 1778064316 | 16.67° C | 80% | 1008.2 hPa | 0 mm | - | 30 W/m² | - |
| 1778064023 | 16.67° C | 81% | 1008.2 hPa | 0 mm | - | 33 W/m² | - |
| 1778063737 | 16.11° C | 81% | 1008.1 hPa | 0 mm | - | 23 W/m² | - |
| 1778063424 | 16.11° C | 81% | 1008.1 hPa | 0 mm | - | 19 W/m² | - |
| 1778063129 | 16.11° C | 81% | 1008 hPa | 0 mm | - | 18 W/m² | - |
| 1778062816 | 16.11° C | 81% | 1008 hPa | 0 mm | - | 12 W/m² | - |
| 1778062525 | 16.11° C | 80% | 1007.9 hPa | 0 mm | - | 11 W/m² | - |
| 1778062214 | 16.11° C | 80% | 1008 hPa | 0 mm | - | 5 W/m² | - |
| 1778061919 | 16.11° C | 79% | 1008 hPa | 0 mm | - | 0 W/m² | - |
| 1778061626 | 16.11° C | 79% | 1008 hPa | 0 mm | - | 0 W/m² | - |
| 1778061314 | 16.11° C | 79% | 1008 hPa | 0 mm | - | 0 W/m² | - |
| 1778061023 | 16.11° C | 78% | 1008.1 hPa | 0 mm | - | 0 W/m² | - |
| 1778060716 | 16.11° C | 78% | 1008.1 hPa | 0 mm | - | 0 W/m² | - |
| 1778060427 | 16.11° C | 78% | 1008.2 hPa | 0 mm | - | 0 W/m² | - |
* Rain latest hour (hover to see other rain measurements)
** Current wind speed in m/s (hover to see current wind gust speed)